Year,Month,Day,Hour,Minute,Value (Times are PST for insolation in W/m^2)
2011,11,02,00,00,0.00
2011,11,02,00,01,0.00
2011,11,02,00,02,0.00
2011,11,02,00,03,0.00
2011,11,02,00,04,0.00
2011,11,02,00,05,0.00
2011,11,02,00,06,0.00
2011,11,02,00,07,0.00
2011,11,02,00,08,0.00
2011,11,02,00,09,0.00
2011,11,02,00,10,0.00
2011,11,02,00,11,0.00
2011,11,02,00,12,0.00
2011,11,02,00,13,0.00
2011,11,02,00,14,0.00
2011,11,02,00,15,0.00
2011,11,02,00,16,0.00
2011,11,02,00,17,0.00
2011,11,02,00,18,0.00
2011,11,02,00,19,0.00
2011,11,02,00,20,0.00
2011,11,02,00,21,0.00
2011,11,02,00,22,0.00
2011,11,02,00,23,0.00
2011,11,02,00,24,0.00
2011,11,02,00,25,0.00
2011,11,02,00,26,0.00
2011,11,02,00,27,0.00
2011,11,02,00,28,0.00
2011,11,02,00,29,0.00
2011,11,02,00,30,0.00
2011,11,02,00,31,0.00
2011,11,02,00,32,0.00
2011,11,02,00,33,0.00
2011,11,02,00,34,0.00
2011,11,02,00,35,0.00
2011,11,02,00,36,0.00
2011,11,02,00,37,0.00
2011,11,02,00,38,0.00
2011,11,02,00,39,0.00
2011,11,02,00,40,0.00
2011,11,02,00,41,0.00
2011,11,02,00,42,0.00
2011,11,02,00,43,0.00
2011,11,02,00,44,0.00
2011,11,02,00,45,0.00
2011,11,02,00,46,0.00
2011,11,02,00,47,0.00
2011,11,02,00,48,0.00
2011,11,02,00,49,0.00
2011,11,02,00,50,0.00
2011,11,02,00,51,0.00
2011,11,02,00,52,0.00
2011,11,02,00,53,0.00
2011,11,02,00,54,0.00
2011,11,02,00,55,0.00
2011,11,02,00,56,0.00
2011,11,02,00,57,0.00
2011,11,02,00,58,0.00
2011,11,02,00,59,0.00
2011,11,02,01,00,0.00
2011,11,02,01,01,0.00
2011,11,02,01,02,0.00
2011,11,02,01,03,0.00
2011,11,02,01,04,0.00
2011,11,02,01,05,0.00
2011,11,02,01,06,0.00
2011,11,02,01,07,0.00
2011,11,02,01,08,0.00
2011,11,02,01,09,0.00
2011,11,02,01,10,0.00
2011,11,02,01,11,0.00
2011,11,02,01,12,0.00
2011,11,02,01,13,0.00
2011,11,02,01,14,0.00
2011,11,02,01,15,0.00
2011,11,02,01,16,0.00
2011,11,02,01,17,0.00
2011,11,02,01,18,0.00
2011,11,02,01,19,0.00
2011,11,02,01,20,0.00
2011,11,02,01,21,0.00
2011,11,02,01,22,0.00
2011,11,02,01,23,0.00
2011,11,02,01,24,0.00
2011,11,02,01,25,0.00
2011,11,02,01,26,0.00
2011,11,02,01,27,0.00
2011,11,02,01,28,0.00
2011,11,02,01,29,0.00
2011,11,02,01,30,0.00
2011,11,02,01,31,0.00
2011,11,02,01,32,0.00
2011,11,02,01,33,0.00
2011,11,02,01,34,0.00
2011,11,02,01,35,0.00
2011,11,02,01,36,0.00
2011,11,02,01,37,0.00
2011,11,02,01,38,0.00
2011,11,02,01,39,0.00
2011,11,02,01,40,0.00
2011,11,02,01,41,0.00
2011,11,02,01,42,0.00
2011,11,02,01,43,0.00
2011,11,02,01,44,0.00
2011,11,02,01,45,0.00
2011,11,02,01,46,0.00
2011,11,02,01,47,0.00
2011,11,02,01,48,0.00
2011,11,02,01,49,0.00
2011,11,02,01,50,0.00
2011,11,02,01,51,0.00
2011,11,02,01,52,0.00
2011,11,02,01,53,0.00
2011,11,02,01,54,0.00
2011,11,02,01,55,0.00
2011,11,02,01,56,0.00
2011,11,02,01,57,0.00
2011,11,02,01,58,0.00
2011,11,02,01,59,0.00
2011,11,02,02,00,0.00
2011,11,02,02,01,0.00
2011,11,02,02,02,0.00
2011,11,02,02,03,0.00
2011,11,02,02,04,0.00
2011,11,02,02,05,0.00
2011,11,02,02,06,0.00
2011,11,02,02,07,0.00
2011,11,02,02,08,0.00
2011,11,02,02,09,0.00
2011,11,02,02,10,0.00
2011,11,02,02,11,0.00
2011,11,02,02,12,0.00
2011,11,02,02,13,0.00
2011,11,02,02,14,0.00
2011,11,02,02,15,0.00
2011,11,02,02,16,0.00
2011,11,02,02,17,0.00
2011,11,02,02,18,0.00
2011,11,02,02,19,0.00
2011,11,02,02,20,0.00
2011,11,02,02,21,0.00
2011,11,02,02,22,0.00
2011,11,02,02,23,0.00
2011,11,02,02,24,0.00
2011,11,02,02,25,0.00
2011,11,02,02,26,0.00
2011,11,02,02,27,0.00
2011,11,02,02,28,0.00
2011,11,02,02,29,0.00
2011,11,02,02,30,0.00
2011,11,02,02,31,0.00
2011,11,02,02,32,0.00
2011,11,02,02,33,0.00
2011,11,02,02,34,0.00
2011,11,02,02,35,0.00
2011,11,02,02,36,0.00
2011,11,02,02,37,0.00
2011,11,02,02,38,0.00
2011,11,02,02,39,0.00
2011,11,02,02,40,0.00
2011,11,02,02,41,0.00
2011,11,02,02,42,0.00
2011,11,02,02,43,0.00
2011,11,02,02,44,0.00
2011,11,02,02,45,0.00
2011,11,02,02,46,0.00
2011,11,02,02,47,0.00
2011,11,02,02,48,0.00
2011,11,02,02,49,0.00
2011,11,02,02,50,0.00
2011,11,02,02,51,0.00
2011,11,02,02,52,0.00
2011,11,02,02,53,0.00
2011,11,02,02,54,0.00
2011,11,02,02,55,0.00
2011,11,02,02,56,0.00
2011,11,02,02,57,0.00
2011,11,02,02,58,0.00
2011,11,02,02,59,0.00
2011,11,02,03,00,0.00
2011,11,02,03,01,0.00
2011,11,02,03,02,0.00
2011,11,02,03,03,0.00
2011,11,02,03,04,0.00
2011,11,02,03,05,0.00
2011,11,02,03,06,0.00
2011,11,02,03,07,0.00
2011,11,02,03,08,0.00
2011,11,02,03,09,0.00
2011,11,02,03,10,0.00
2011,11,02,03,11,0.00
2011,11,02,03,12,0.00
2011,11,02,03,13,0.00
2011,11,02,03,14,0.00
2011,11,02,03,15,0.00
2011,11,02,03,16,0.00
2011,11,02,03,17,0.00
2011,11,02,03,18,0.00
2011,11,02,03,19,0.00
2011,11,02,03,20,0.00
2011,11,02,03,21,0.00
2011,11,02,03,22,0.00
2011,11,02,03,23,0.00
2011,11,02,03,24,0.00
2011,11,02,03,25,0.00
2011,11,02,03,26,0.00
2011,11,02,03,27,0.00
2011,11,02,03,28,0.00
2011,11,02,03,29,0.00
2011,11,02,03,30,0.00
2011,11,02,03,31,0.00
2011,11,02,03,32,0.00
2011,11,02,03,33,0.00
2011,11,02,03,34,0.00
2011,11,02,03,35,0.00
2011,11,02,03,36,0.00
2011,11,02,03,37,0.00
2011,11,02,03,38,0.00
2011,11,02,03,39,0.00
2011,11,02,03,40,0.00
2011,11,02,03,41,0.00
2011,11,02,03,42,0.00
2011,11,02,03,43,0.00
2011,11,02,03,44,0.00
2011,11,02,03,45,0.00
2011,11,02,03,46,0.00
2011,11,02,03,47,0.00
2011,11,02,03,48,0.00
2011,11,02,03,49,0.00
2011,11,02,03,50,0.00
2011,11,02,03,51,0.00
2011,11,02,03,52,0.00
2011,11,02,03,53,0.00
2011,11,02,03,54,0.00
2011,11,02,03,55,0.00
2011,11,02,03,56,0.00
2011,11,02,03,57,0.00
2011,11,02,03,58,0.00
2011,11,02,03,59,0.00
2011,11,02,04,00,0.00
2011,11,02,04,01,0.00
2011,11,02,04,02,0.00
2011,11,02,04,03,0.00
2011,11,02,04,04,0.00
2011,11,02,04,05,0.00
2011,11,02,04,06,0.00
2011,11,02,04,07,0.00
2011,11,02,04,08,0.00
2011,11,02,04,09,0.00
2011,11,02,04,10,0.00
2011,11,02,04,11,0.00
2011,11,02,04,12,0.00
2011,11,02,04,13,0.00
2011,11,02,04,14,0.00
2011,11,02,04,15,0.00
2011,11,02,04,16,0.00
2011,11,02,04,17,0.00
2011,11,02,04,18,0.00
2011,11,02,04,19,0.00
2011,11,02,04,20,0.00
2011,11,02,04,21,0.00
2011,11,02,04,22,0.00
2011,11,02,04,23,0.00
2011,11,02,04,24,0.00
2011,11,02,04,25,0.00
2011,11,02,04,26,0.00
2011,11,02,04,27,0.00
2011,11,02,04,28,0.00
2011,11,02,04,29,0.00
2011,11,02,04,30,0.00
2011,11,02,04,31,0.00
2011,11,02,04,32,0.00
2011,11,02,04,33,0.00
2011,11,02,04,34,0.00
2011,11,02,04,35,0.00
2011,11,02,04,36,0.00
2011,11,02,04,37,0.00
2011,11,02,04,38,0.00
2011,11,02,04,39,0.00
2011,11,02,04,40,0.00
2011,11,02,04,41,0.00
2011,11,02,04,42,0.00
2011,11,02,04,43,0.00
2011,11,02,04,44,0.00
2011,11,02,04,45,0.00
2011,11,02,04,46,0.00
2011,11,02,04,47,0.00
2011,11,02,04,48,0.00
2011,11,02,04,49,0.00
2011,11,02,04,50,0.00
2011,11,02,04,51,0.00
2011,11,02,04,52,0.00
2011,11,02,04,53,0.00
2011,11,02,04,54,0.00
2011,11,02,04,55,0.00
2011,11,02,04,56,0.00
2011,11,02,04,57,0.00
2011,11,02,04,58,0.00
2011,11,02,04,59,0.00
2011,11,02,05,00,0.00
2011,11,02,05,01,0.00
2011,11,02,05,02,0.00
2011,11,02,05,03,0.00
2011,11,02,05,04,0.00
2011,11,02,05,05,0.00
2011,11,02,05,06,0.00
2011,11,02,05,07,0.00
2011,11,02,05,08,0.00
2011,11,02,05,09,0.00
2011,11,02,05,10,0.00
2011,11,02,05,11,0.00
2011,11,02,05,12,0.00
2011,11,02,05,13,0.00
2011,11,02,05,14,0.00
2011,11,02,05,15,0.00
2011,11,02,05,16,0.00
2011,11,02,05,17,0.00
2011,11,02,05,18,0.00
2011,11,02,05,19,0.00
2011,11,02,05,20,0.00
2011,11,02,05,21,0.00
2011,11,02,05,22,0.00
2011,11,02,05,23,0.00
2011,11,02,05,24,0.00
2011,11,02,05,25,0.00
2011,11,02,05,26,0.00
2011,11,02,05,27,0.00
2011,11,02,05,28,0.00
2011,11,02,05,29,0.00
2011,11,02,05,30,0.00
2011,11,02,05,31,0.00
2011,11,02,05,32,0.00
2011,11,02,05,33,0.00
2011,11,02,05,34,0.00
2011,11,02,05,35,0.00
2011,11,02,05,36,0.00
2011,11,02,05,37,0.00
2011,11,02,05,38,0.00
2011,11,02,05,39,0.00
2011,11,02,05,40,0.00
2011,11,02,05,41,0.00
2011,11,02,05,42,0.00
2011,11,02,05,43,0.00
2011,11,02,05,44,0.00
2011,11,02,05,45,0.00
2011,11,02,05,46,0.00
2011,11,02,05,47,0.00
2011,11,02,05,48,0.00
2011,11,02,05,49,0.00
2011,11,02,05,50,0.00
2011,11,02,05,51,0.00
2011,11,02,05,52,0.00
2011,11,02,05,53,0.00
2011,11,02,05,54,0.00
2011,11,02,05,55,0.00
2011,11,02,05,56,0.00
2011,11,02,05,57,0.00
2011,11,02,05,58,0.00
2011,11,02,05,59,0.00
2011,11,02,06,00,0.00
2011,11,02,06,01,0.00
2011,11,02,06,02,0.00
2011,11,02,06,03,0.00
2011,11,02,06,04,0.00
2011,11,02,06,05,0.00
2011,11,02,06,06,0.00
2011,11,02,06,07,0.00
2011,11,02,06,08,0.00
2011,11,02,06,09,0.00
2011,11,02,06,10,0.00
2011,11,02,06,11,0.00
2011,11,02,06,12,0.00
2011,11,02,06,13,0.00
2011,11,02,06,14,0.00
2011,11,02,06,15,0.00
2011,11,02,06,16,0.00
2011,11,02,06,17,0.00
2011,11,02,06,18,0.00
2011,11,02,06,19,0.00
2011,11,02,06,20,0.00
2011,11,02,06,21,0.00
2011,11,02,06,22,0.00
2011,11,02,06,23,0.00
2011,11,02,06,24,0.00
2011,11,02,06,25,0.00
2011,11,02,06,26,0.00
2011,11,02,06,27,0.00
2011,11,02,06,28,0.00
2011,11,02,06,29,0.00
2011,11,02,06,30,0.00
2011,11,02,06,31,0.00
2011,11,02,06,32,0.00
2011,11,02,06,33,0.00
2011,11,02,06,34,0.00
2011,11,02,06,35,0.00
2011,11,02,06,36,0.00
2011,11,02,06,37,0.00
2011,11,02,06,38,0.00
2011,11,02,06,39,0.00
2011,11,02,06,40,0.00
2011,11,02,06,41,0.00
2011,11,02,06,42,0.00
2011,11,02,06,43,0.00
2011,11,02,06,44,0.00
2011,11,02,06,45,0.00
2011,11,02,06,46,0.00
2011,11,02,06,47,0.00
2011,11,02,06,48,0.00
2011,11,02,06,49,0.00
2011,11,02,06,50,0.00
2011,11,02,06,51,0.00
2011,11,02,06,52,0.00
2011,11,02,06,53,0.00
2011,11,02,06,54,0.00
2011,11,02,06,55,0.00
2011,11,02,06,56,0.00
2011,11,02,06,57,0.00
2011,11,02,06,58,0.00
2011,11,02,06,59,0.00
2011,11,02,07,00,0.00
2011,11,02,07,01,0.00
2011,11,02,07,02,0.00
2011,11,02,07,03,0.00
2011,11,02,07,04,0.00
2011,11,02,07,05,0.00
2011,11,02,07,06,0.00
2011,11,02,07,07,0.00
2011,11,02,07,08,0.00
2011,11,02,07,09,0.00
2011,11,02,07,10,0.00
2011,11,02,07,11,0.00
2011,11,02,07,12,0.00
2011,11,02,07,13,0.00
2011,11,02,07,14,0.00
2011,11,02,07,15,0.00
2011,11,02,07,16,0.00
2011,11,02,07,17,0.00
2011,11,02,07,18,0.00
2011,11,02,07,19,0.00
2011,11,02,07,20,0.00
2011,11,02,07,21,0.00
2011,11,02,07,22,0.00
2011,11,02,07,23,0.00
2011,11,02,07,24,0.00
2011,11,02,07,25,0.00
2011,11,02,07,26,0.00
2011,11,02,07,27,0.00
2011,11,02,07,28,0.00
2011,11,02,07,29,0.00
2011,11,02,07,30,0.00
2011,11,02,07,31,0.00
2011,11,02,07,32,0.00
2011,11,02,07,33,0.00
2011,11,02,07,34,0.00
2011,11,02,07,35,0.00
2011,11,02,07,36,0.00
2011,11,02,07,37,0.00
2011,11,02,07,38,0.00
2011,11,02,07,39,0.00
2011,11,02,07,40,0.00
2011,11,02,07,41,0.00
2011,11,02,07,42,0.00
2011,11,02,07,43,0.00
2011,11,02,07,44,0.00
2011,11,02,07,45,0.00
2011,11,02,07,46,0.00
2011,11,02,07,47,0.00
2011,11,02,07,48,0.00
2011,11,02,07,49,0.00
2011,11,02,07,50,0.00
2011,11,02,07,51,1.20
2011,11,02,07,52,5.00
2011,11,02,07,53,5.00
2011,11,02,07,54,6.50
2011,11,02,07,55,7.00
2011,11,02,07,56,7.00
2011,11,02,07,57,7.50
2011,11,02,07,58,9.00
2011,11,02,07,59,9.00
2011,11,02,08,00,9.00
2011,11,02,08,01,9.00
2011,11,02,08,02,9.00
2011,11,02,08,03,9.00
2011,11,02,08,04,9.00
2011,11,02,08,05,9.00
2011,11,02,08,06,10.40
2011,11,02,08,07,11.00
2011,11,02,08,08,11.20
2011,11,02,08,09,12.00
2011,11,02,08,10,12.00
2011,11,02,08,11,13.20
2011,11,02,08,12,14.00
2011,11,02,08,13,15.80
2011,11,02,08,14,16.30
2011,11,02,08,15,18.30
2011,11,02,08,16,19.00
2011,11,02,08,17,20.20
2011,11,02,08,18,22.60
2011,11,02,08,19,24.90
2011,11,02,08,20,26.40
2011,11,02,08,21,28.00
2011,11,02,08,22,29.00
2011,11,02,08,23,30.00
2011,11,02,08,24,31.60
2011,11,02,08,25,33.10
2011,11,02,08,26,35.40
2011,11,02,08,27,37.70
2011,11,02,08,28,39.00
2011,11,02,08,29,39.70
2011,11,02,08,30,40.00
2011,11,02,08,31,41.90
2011,11,02,08,32,42.50
2011,11,02,08,33,44.80
2011,11,02,08,34,46.00
2011,11,02,08,35,46.70
2011,11,02,08,36,48.70
2011,11,02,08,37,53.20
2011,11,02,08,38,55.20
2011,11,02,08,39,53.00
2011,11,02,08,40,51.90
2011,11,02,08,41,49.60
2011,11,02,08,42,47.30
2011,11,02,08,43,47.00
2011,11,02,08,44,47.60
2011,11,02,08,45,49.90
2011,11,02,08,46,52.80
2011,11,02,08,47,56.80
2011,11,02,08,48,58.00
2011,11,02,08,49,60.00
2011,11,02,08,50,60.00
2011,11,02,08,51,60.00
2011,11,02,08,52,61.20
2011,11,02,08,53,62.80
2011,11,02,08,54,66.60
2011,11,02,08,55,70.30
2011,11,02,08,56,79.70
2011,11,02,08,57,86.10
2011,11,02,08,58,92.10
2011,11,02,08,59,99.30
2011,11,02,09,00,97.40
2011,11,02,09,01,99.60
2011,11,02,09,02,98.70
2011,11,02,09,03,98.50
2011,11,02,09,04,100.40
2011,11,02,09,05,98.10
2011,11,02,09,06,97.10
2011,11,02,09,07,99.50
2011,11,02,09,08,105.00
2011,11,02,09,09,102.40
2011,11,02,09,10,92.20
2011,11,02,09,11,86.40
2011,11,02,09,12,98.00
2011,11,02,09,13,84.00
2011,11,02,09,14,85.60
2011,11,02,09,15,90.60
2011,11,02,09,16,93.00
2011,11,02,09,17,91.30
2011,11,02,09,18,86.40
2011,11,02,09,19,89.80
2011,11,02,09,20,94.10
2011,11,02,09,21,93.00
2011,11,02,09,22,94.40
2011,11,02,09,23,96.70
2011,11,02,09,24,100.30
2011,11,02,09,25,110.80
2011,11,02,09,26,124.20
2011,11,02,09,27,108.30
2011,11,02,09,28,104.00
2011,11,02,09,29,148.50
2011,11,02,09,30,112.70
2011,11,02,09,31,111.60
2011,11,02,09,32,113.00
2011,11,02,09,33,113.60
2011,11,02,09,34,118.50
2011,11,02,09,35,171.10
2011,11,02,09,36,214.40
2011,11,02,09,37,182.70
2011,11,02,09,38,137.00
2011,11,02,09,39,130.60
2011,11,02,09,40,145.80
2011,11,02,09,41,169.10
2011,11,02,09,42,163.60
2011,11,02,09,43,187.00
2011,11,02,09,44,141.00
2011,11,02,09,45,132.00
2011,11,02,09,46,132.70
2011,11,02,09,47,155.30
2011,11,02,09,48,132.50
2011,11,02,09,49,126.20
2011,11,02,09,50,124.00
2011,11,02,09,51,124.30
2011,11,02,09,52,126.60
2011,11,02,09,53,130.00
2011,11,02,09,54,133.20
2011,11,02,09,55,137.00
2011,11,02,09,56,135.90
2011,11,02,09,57,135.00
2011,11,02,09,58,135.00
2011,11,02,09,59,135.00
2011,11,02,10,00,135.50
2011,11,02,10,01,137.90
2011,11,02,10,02,140.10
2011,11,02,10,03,141.70
2011,11,02,10,04,143.70
2011,11,02,10,05,146.30
2011,11,02,10,06,148.30
2011,11,02,10,07,149.80
2011,11,02,10,08,149.90
2011,11,02,10,09,149.00
2011,11,02,10,10,168.10
2011,11,02,10,11,166.30
2011,11,02,10,12,164.90
2011,11,02,10,13,166.30
2011,11,02,10,14,166.50
2011,11,02,10,15,169.00
2011,11,02,10,16,182.50
2011,11,02,10,17,197.90
2011,11,02,10,18,193.30
2011,11,02,10,19,208.30
2011,11,02,10,20,217.90
2011,11,02,10,21,213.50
2011,11,02,10,22,193.00
2011,11,02,10,23,175.20
2011,11,02,10,24,174.40
2011,11,02,10,25,182.30
2011,11,02,10,26,187.30
2011,11,02,10,27,199.00
2011,11,02,10,28,192.70
2011,11,02,10,29,194.10
2011,11,02,10,30,203.30
2011,11,02,10,31,191.30
2011,11,02,10,32,181.30
2011,11,02,10,33,191.90
2011,11,02,10,34,213.80
2011,11,02,10,35,224.20
2011,11,02,10,36,244.20
2011,11,02,10,37,261.00
2011,11,02,10,38,271.70
2011,11,02,10,39,264.40
2011,11,02,10,40,276.60
2011,11,02,10,41,287.00
2011,11,02,10,42,240.00
2011,11,02,10,43,218.10
2011,11,02,10,44,215.40
2011,11,02,10,45,213.50
2011,11,02,10,46,182.30
2011,11,02,10,47,176.80
2011,11,02,10,48,176.90
2011,11,02,10,49,173.10
2011,11,02,10,50,144.10
2011,11,02,10,51,140.20
2011,11,02,10,52,130.00
2011,11,02,10,53,120.70
2011,11,02,10,54,119.10
2011,11,02,10,55,118.00
2011,11,02,10,56,119.50
2011,11,02,10,57,123.00
2011,11,02,10,58,128.30
2011,11,02,10,59,130.70
2011,11,02,11,00,133.40
2011,11,02,11,01,139.10
2011,11,02,11,02,154.00
2011,11,02,11,03,198.20
2011,11,02,11,04,244.00
2011,11,02,11,05,315.70
2011,11,02,11,06,421.80
2011,11,02,11,07,377.10
2011,11,02,11,08,377.20
2011,11,02,11,09,365.80
2011,11,02,11,10,204.90
2011,11,02,11,11,186.50
2011,11,02,11,12,176.30
2011,11,02,11,13,167.40
2011,11,02,11,14,177.70
2011,11,02,11,15,265.00
2011,11,02,11,16,306.80
2011,11,02,11,17,449.50
2011,11,02,11,18,433.40
2011,11,02,11,19,374.70
2011,11,02,11,20,353.70
2011,11,02,11,21,354.50
2011,11,02,11,22,351.00
2011,11,02,11,23,370.70
2011,11,02,11,24,400.30
2011,11,02,11,25,412.40
2011,11,02,11,26,400.80
2011,11,02,11,27,438.40
2011,11,02,11,28,466.90
2011,11,02,11,29,458.40
2011,11,02,11,30,461.70
2011,11,02,11,31,475.30
2011,11,02,11,32,445.40
2011,11,02,11,33,374.70
2011,11,02,11,34,401.10
2011,11,02,11,35,351.50
2011,11,02,11,36,280.50
2011,11,02,11,37,223.30
2011,11,02,11,38,181.80
2011,11,02,11,39,203.20
2011,11,02,11,40,235.90
2011,11,02,11,41,298.30
2011,11,02,11,42,324.40
2011,11,02,11,43,359.00
2011,11,02,11,44,341.50
2011,11,02,11,45,339.50
2011,11,02,11,46,317.70
2011,11,02,11,47,279.30
2011,11,02,11,48,271.70
2011,11,02,11,49,287.70
2011,11,02,11,50,293.20
2011,11,02,11,51,311.00
2011,11,02,11,52,333.50
2011,11,02,11,53,347.30
2011,11,02,11,54,337.00
2011,11,02,11,55,318.30
2011,11,02,11,56,319.80
2011,11,02,11,57,323.00
2011,11,02,11,58,325.00
2011,11,02,11,59,313.00
2011,11,02,12,00,311.00
2011,11,02,12,01,290.30
2011,11,02,12,02,247.70
2011,11,02,12,03,257.00
2011,11,02,12,04,292.00
2011,11,02,12,05,267.20
2011,11,02,12,06,264.90
2011,11,02,12,07,277.50
2011,11,02,12,08,241.80
2011,11,02,12,09,241.30
2011,11,02,12,10,257.90
2011,11,02,12,11,229.60
2011,11,02,12,12,225.00
2011,11,02,12,13,234.60
2011,11,02,12,14,231.20
2011,11,02,12,15,246.00
2011,11,02,12,16,241.70
2011,11,02,12,17,217.50
2011,11,02,12,18,195.90
2011,11,02,12,19,188.70
2011,11,02,12,20,191.20
2011,11,02,12,21,198.70
2011,11,02,12,22,203.90
2011,11,02,12,23,210.30
2011,11,02,12,24,213.80
2011,11,02,12,25,229.10
2011,11,02,12,26,244.10
2011,11,02,12,27,256.40
2011,11,02,12,28,278.00
2011,11,02,12,29,297.40
2011,11,02,12,30,278.20
2011,11,02,12,31,263.60
2011,11,02,12,32,304.60
2011,11,02,12,33,352.50
2011,11,02,12,34,305.30
2011,11,02,12,35,255.00
2011,11,02,12,36,242.30
2011,11,02,12,37,237.80
2011,11,02,12,38,244.00
2011,11,02,12,39,242.00
2011,11,02,12,40,241.10
2011,11,02,12,41,280.30
2011,11,02,12,42,329.60
2011,11,02,12,43,291.80
2011,11,02,12,44,258.30
2011,11,02,12,45,244.20
2011,11,02,12,46,231.10
2011,11,02,12,47,214.70
2011,11,02,12,48,198.90
2011,11,02,12,49,188.00
2011,11,02,12,50,189.20
2011,11,02,12,51,194.10
2011,11,02,12,52,202.10
2011,11,02,12,53,213.40
2011,11,02,12,54,214.30
2011,11,02,12,55,213.50
2011,11,02,12,56,209.50
2011,11,02,12,57,196.00
2011,11,02,12,58,188.50
2011,11,02,12,59,192.00
2011,11,02,13,00,202.80
2011,11,02,13,01,247.00
2011,11,02,13,02,228.30
2011,11,02,13,03,223.70
2011,11,02,13,04,218.80
2011,11,02,13,05,218.00
2011,11,02,13,06,220.00
2011,11,02,13,07,223.00
2011,11,02,13,08,223.70
2011,11,02,13,09,221.50
2011,11,02,13,10,214.70
2011,11,02,13,11,213.80
2011,11,02,13,12,220.30
2011,11,02,13,13,229.70
2011,11,02,13,14,233.50
2011,11,02,13,15,240.20
2011,11,02,13,16,256.00
2011,11,02,13,17,279.30
2011,11,02,13,18,305.10
2011,11,02,13,19,327.00
2011,11,02,13,20,320.00
2011,11,02,13,21,328.30
2011,11,02,13,22,338.20
2011,11,02,13,23,332.30
2011,11,02,13,24,332.70
2011,11,02,13,25,304.20
2011,11,02,13,26,272.50
2011,11,02,13,27,245.20
2011,11,02,13,28,230.00
2011,11,02,13,29,217.80
2011,11,02,13,30,218.00
2011,11,02,13,31,217.50
2011,11,02,13,32,208.60
2011,11,02,13,33,194.90
2011,11,02,13,34,190.50
2011,11,02,13,35,188.30
2011,11,02,13,36,193.30
2011,11,02,13,37,200.70
2011,11,02,13,38,202.00
2011,11,02,13,39,209.00
2011,11,02,13,40,216.70
2011,11,02,13,41,224.90
2011,11,02,13,42,236.90
2011,11,02,13,43,240.30
2011,11,02,13,44,242.30
2011,11,02,13,45,246.00
2011,11,02,13,46,239.00
2011,11,02,13,47,234.20
2011,11,02,13,48,231.60
2011,11,02,13,49,229.00
2011,11,02,13,50,225.00
2011,11,02,13,51,221.00
2011,11,02,13,52,218.40
2011,11,02,13,53,214.40
2011,11,02,13,54,216.40
2011,11,02,13,55,218.70
2011,11,02,13,56,215.30
2011,11,02,13,57,203.00
2011,11,02,13,58,191.60
2011,11,02,13,59,185.50
2011,11,02,14,00,185.00
2011,11,02,14,01,170.30
2011,11,02,14,02,156.00
2011,11,02,14,03,144.00
2011,11,02,14,04,135.20
2011,11,02,14,05,126.40
2011,11,02,14,06,118.40
2011,11,02,14,07,111.30
2011,11,02,14,08,107.90
2011,11,02,14,09,105.60
2011,11,02,14,10,102.40
2011,11,02,14,11,97.60
2011,11,02,14,12,94.40
2011,11,02,14,13,93.00
2011,11,02,14,14,94.10
2011,11,02,14,15,95.00
2011,11,02,14,16,95.00
2011,11,02,14,17,93.00
2011,11,02,14,18,92.40
2011,11,02,14,19,90.50
2011,11,02,14,20,90.60
2011,11,02,14,21,92.50
2011,11,02,14,22,92.90
2011,11,02,14,23,90.50
2011,11,02,14,24,86.30
2011,11,02,14,25,81.10
2011,11,02,14,26,77.80
2011,11,02,14,27,76.20
2011,11,02,14,28,76.00
2011,11,02,14,29,76.00
2011,11,02,14,30,76.00
2011,11,02,14,31,74.00
2011,11,02,14,32,70.00
2011,11,02,14,33,67.40
2011,11,02,14,34,62.90
2011,11,02,14,35,59.60
2011,11,02,14,36,57.20
2011,11,02,14,37,57.00
2011,11,02,14,38,58.00
2011,11,02,14,39,59.60
2011,11,02,14,40,59.80
2011,11,02,14,41,57.00
2011,11,02,14,42,52.80
2011,11,02,14,43,49.90
2011,11,02,14,44,49.00
2011,11,02,14,45,49.00
2011,11,02,14,46,51.00
2011,11,02,14,47,51.50
2011,11,02,14,48,52.20
2011,11,02,14,49,48.70
2011,11,02,14,50,44.80
2011,11,02,14,51,40.70
2011,11,02,14,52,38.70
2011,11,02,14,53,36.50
2011,11,02,14,54,35.00
2011,11,02,14,55,33.90
2011,11,02,14,56,33.00
2011,11,02,14,57,32.10
2011,11,02,14,58,32.00
2011,11,02,14,59,32.00
2011,11,02,15,00,31.00
2011,11,02,15,01,28.80
2011,11,02,15,02,28.00
2011,11,02,15,03,26.30
2011,11,02,15,04,25.80
2011,11,02,15,05,25.00
2011,11,02,15,06,25.00
2011,11,02,15,07,25.00
2011,11,02,15,08,25.00
2011,11,02,15,09,25.90
2011,11,02,15,10,26.40
2011,11,02,15,11,28.00
2011,11,02,15,12,28.00
2011,11,02,15,13,28.00
2011,11,02,15,14,28.00
2011,11,02,15,15,27.80
2011,11,02,15,16,25.80
2011,11,02,15,17,24.20
2011,11,02,15,18,23.00
2011,11,02,15,19,21.70
2011,11,02,15,20,22.60
2011,11,02,15,21,23.00
2011,11,02,15,22,22.50
2011,11,02,15,23,21.00
2011,11,02,15,24,19.90
2011,11,02,15,25,19.00
2011,11,02,15,26,18.20
2011,11,02,15,27,18.00
2011,11,02,15,28,18.00
2011,11,02,15,29,18.00
2011,11,02,15,30,18.00
2011,11,02,15,31,18.00
2011,11,02,15,32,18.00
2011,11,02,15,33,18.00
2011,11,02,15,34,18.00
2011,11,02,15,35,18.00
2011,11,02,15,36,18.00
2011,11,02,15,37,18.00
2011,11,02,15,38,18.00
2011,11,02,15,39,18.20
2011,11,02,15,40,19.00
2011,11,02,15,41,19.00
2011,11,02,15,42,19.00
2011,11,02,15,43,19.00
2011,11,02,15,44,19.10
2011,11,02,15,45,21.00
2011,11,02,15,46,21.00
2011,11,02,15,47,21.00
2011,11,02,15,48,21.00
2011,11,02,15,49,21.00
2011,11,02,15,50,21.00
2011,11,02,15,51,21.00
2011,11,02,15,52,21.00
2011,11,02,15,53,22.00
2011,11,02,15,54,23.00
2011,11,02,15,55,23.00
2011,11,02,15,56,23.00
2011,11,02,15,57,23.50
2011,11,02,15,58,25.00
2011,11,02,15,59,25.50
2011,11,02,16,00,27.30
2011,11,02,16,01,28.00
2011,11,02,16,02,29.90
2011,11,02,16,03,29.50
2011,11,02,16,04,27.20
2011,11,02,16,05,25.50
2011,11,02,16,06,25.00
2011,11,02,16,07,25.00
2011,11,02,16,08,23.30
2011,11,02,16,09,25.30
2011,11,02,16,10,26.00
2011,11,02,16,11,26.00
2011,11,02,16,12,27.40
2011,11,02,16,13,28.00
2011,11,02,16,14,27.70
2011,11,02,16,15,25.70
2011,11,02,16,16,25.00
2011,11,02,16,17,25.00
2011,11,02,16,18,25.00
2011,11,02,16,19,25.00
2011,11,02,16,20,23.00
2011,11,02,16,21,22.40
2011,11,02,16,22,21.00
2011,11,02,16,23,21.00
2011,11,02,16,24,19.50
2011,11,02,16,25,19.00
2011,11,02,16,26,19.00
2011,11,02,16,27,19.70
2011,11,02,16,28,21.00
2011,11,02,16,29,21.00
2011,11,02,16,30,21.00
2011,11,02,16,31,21.00
2011,11,02,16,32,21.00
2011,11,02,16,33,21.00
2011,11,02,16,34,20.00
2011,11,02,16,35,19.00
2011,11,02,16,36,18.20
2011,11,02,16,37,17.80
2011,11,02,16,38,16.00
2011,11,02,16,39,16.00
2011,11,02,16,40,15.00
2011,11,02,16,41,14.00
2011,11,02,16,42,12.40
2011,11,02,16,43,11.90
2011,11,02,16,44,11.00
2011,11,02,16,45,11.00
2011,11,02,16,46,9.90
2011,11,02,16,47,9.00
2011,11,02,16,48,7.30
2011,11,02,16,49,7.00
2011,11,02,16,50,7.00
2011,11,02,16,51,7.00
2011,11,02,16,52,7.00
2011,11,02,16,53,5.60
2011,11,02,16,54,5.00
2011,11,02,16,55,5.00
2011,11,02,16,56,5.60
2011,11,02,16,57,7.00
2011,11,02,16,58,7.00
2011,11,02,16,59,7.00
2011,11,02,17,00,8.70
2011,11,02,17,01,9.00
2011,11,02,17,02,9.00
2011,11,02,17,03,9.00
2011,11,02,17,04,9.00
2011,11,02,17,05,9.00
2011,11,02,17,06,9.00
2011,11,02,17,07,8.60
2011,11,02,17,08,7.00
2011,11,02,17,09,7.00
2011,11,02,17,10,7.00
2011,11,02,17,11,7.00
2011,11,02,17,12,5.30
2011,11,02,17,13,6.60
2011,11,02,17,14,5.00
2011,11,02,17,15,5.00
2011,11,02,17,16,5.00
2011,11,02,17,17,5.00
2011,11,02,17,18,5.00
2011,11,02,17,19,5.00
2011,11,02,17,20,5.00
2011,11,02,17,21,5.00
2011,11,02,17,22,5.00
2011,11,02,17,23,5.00
2011,11,02,17,24,5.00
2011,11,02,17,25,5.00
2011,11,02,17,26,5.00
2011,11,02,17,27,5.00
2011,11,02,17,28,5.00
2011,11,02,17,29,0.90